| time (UTC) | temp F | wind direction | speed MPH | gust MPH | rain 1hr in | rain 24hr in | rain mn in | humidity % | barometer mb |
| 20260508135620 | 58 | 291 | 2.0 | 2.0 | 0.00 | 0.00 | 0.00 | 80 | 1015.4 |
| 20260508135117 | 57 | 277 | 2.0 | 2.0 | 0.00 | 0.00 | 0.00 | 82 | 1015.4 |
| 20260508134614 | 57 | 301 | 1.0 | 1.0 | 0.00 | 0.00 | 0.00 | 82 | 1015.5 |
| 20260508134111 | 57 | 25 | 0.0 | 0.0 | 0.00 | 0.00 | 0.00 | 82 | 1015.2 |
| 20260508133607 | 57 | 35 | 0.0 | 0.0 | 0.00 | 0.00 | 0.00 | 81 | 1015.2 |
| 20260508133105 | 56 | 39 | 0.0 | 0.0 | 0.00 | 0.00 | 0.00 | 82 | 1015.3 |
| 20260508132603 | 56 | 51 | 0.0 | 0.0 | 0.00 | 0.00 | 0.00 | 81 | 1015.1 |
| 20260508132059 | 56 | 51 | 0.0 | 0.0 | 0.00 | 0.00 | 0.00 | 81 | 1015.2 |
| 20260508131554 | 56 | 51 | 0.0 | 0.0 | 0.00 | 0.00 | 0.00 | 81 | 1015.1 |
| 20260508131052 | 56 | 51 | 0.0 | 0.0 | 0.00 | 0.00 | 0.00 | 81 | 1014.9 |
| 20260508130548 | 56 | 52 | 0.0 | 0.0 | 0.00 | 0.00 | 0.00 | 81 | 1015.0 |
| 20260508130045 | 56 | 52 | 0.0 | 0.0 | 0.00 | 0.00 | 0.00 | 80 | 1015.1 |
| 20260508125540 | 57 | 52 | 0.0 | 0.0 | 0.00 | 0.00 | 0.00 | 80 | 1014.9 |
| 20260508125038 | 57 | 52 | 0.0 | 0.0 | 0.00 | 0.00 | 0.00 | 80 | 1014.9 |
| 20260508124536 | 57 | 52 | 0.0 | 1.0 | 0.00 | 0.00 | 0.00 | 80 | 1014.8 |
| 20260508124033 | 57 | 50 | 0.0 | 0.0 | 0.00 | 0.00 | 0.00 | 80 | 1014.7 |
| 20260508123532 | 57 | 36 | 0.0 | 0.0 | 0.00 | 0.00 | 0.00 | 80 | 1014.8 |
| 20260508123028 | 57 | 35 | 0.0 | 0.0 | 0.00 | 0.00 | 0.00 | 79 | 1014.6 |
| 20260508122525 | 58 | 38 | 0.0 | 1.0 | 0.00 | 0.00 | 0.00 | 79 | 1014.8 |
| 20260508122022 | 58 | 38 | 1.0 | 1.0 | 0.00 | 0.00 | 0.00 | 79 | 1014.7 |
| 20260508121520 | 59 | 33 | 0.0 | 1.0 | 0.00 | 0.00 | 0.00 | 79 | 1014.6 |
| 20260508121018 | 59 | 340 | 0.0 | 0.0 | 0.00 | 0.00 | 0.00 | 79 | 1014.5 |
| 20260508120515 | 59 | 1 | 0.0 | 0.0 | 0.00 | 0.00 | 0.00 | 79 | 1014.5 |
| 20260508120013 | 59 | 274 | 1.0 | 1.0 | 0.00 | 0.00 | 0.00 | 79 | 1014.7 |
| 20260508115510 | 59 | 330 | 0.0 | 0.0 | 0.00 | 0.00 | 0.00 | 78 | 1014.6 |
| 20260508115007 | 58 | 242 | 0.0 | 1.0 | 0.00 | 0.00 | 0.00 | 79 | 1014.7 |
| 20260508114504 | 58 | 261 | 1.0 | 2.0 | 0.00 | 0.00 | 0.00 | 80 | 1014.7 |
| 20260508114000 | 58 | 40 | 0.0 | 0.0 | 0.00 | 0.00 | 0.00 | 81 | 1014.7 |
| 20260508113458 | 58 | 43 | 0.0 | 0.0 | 0.00 | 0.00 | 0.00 | 81 | 1014.7 |
| 20260508112955 | 58 | 44 | 0.0 | 0.0 | 0.00 | 0.00 | 0.00 | 81 | 1014.8 |
| 20260508112451 | 58 | 50 | 0.0 | 0.0 | 0.00 | 0.00 | 0.00 | 81 | 1014.7 |
| 20260508111948 | 58 | 51 | 0.0 | 0.0 | 0.00 | 0.00 | 0.00 | 81 | 1014.7 |
| 20260508111445 | 58 | 39 | 0.0 | 0.0 | 0.00 | 0.00 | 0.00 | 81 | 1014.7 |
| 20260508110942 | 58 | 40 | 0.0 | 0.0 | 0.00 | 0.00 | 0.00 | 82 | 1014.6 |
| 20260508110440 | 58 | 60 | 0.0 | 0.0 | 0.00 | 0.00 | 0.00 | 82 | 1014.5 |
| 20260508105939 | 58 | 45 | 0.0 | 0.0 | 0.00 | 0.00 | 0.00 | 83 | 1014.6 |
| 20260508105436 | 59 | 43 | 0.0 | 0.0 | 0.00 | 0.00 | 0.00 | 83 | 1014.7 |
| 20260508104933 | 59 | 43 | 0.0 | 0.0 | 0.00 | 0.00 | 0.00 | 83 | 1014.5 |
| 20260508104431 | 59 | 43 | 0.0 | 0.0 | 0.00 | 0.00 | 0.00 | 83 | 1014.5 |
| 20260508103927 | 59 | 42 | 0.0 | 0.0 | 0.00 | 0.00 | 0.00 | 83 | 1014.5 |
| 20260508103424 | 60 | 27 | 0.0 | 0.0 | 0.00 | 0.00 | 0.00 | 83 | 1014.7 |
| 20260508102921 | 60 | 26 | 0.0 | 0.0 | 0.00 | 0.00 | 0.00 | 82 | 1014.3 |
| 20260508102420 | 60 | 26 | 0.0 | 0.0 | 0.00 | 0.00 | 0.00 | 82 | 1014.4 |
| 20260508101917 | 61 | 13 | 0.0 | 0.0 | 0.00 | 0.00 | 0.00 | 81 | 1014.5 |
| 20260508101414 | 61 | 312 | 0.0 | 0.0 | 0.00 | 0.00 | 0.00 | 81 | 1014.2 |
| 20260508100911 | 61 | 312 | 0.0 | 0.0 | 0.00 | 0.00 | 0.00 | 80 | 1014.5 |
| 20260508100410 | 62 | 2 | 0.0 | 0.0 | 0.00 | 0.00 | 0.00 | 80 | 1014.2 |
| 20260508095905 | 62 | 257 | 0.0 | 0.0 | 0.00 | 0.00 | 0.00 | 80 | 1014.2 |
| 20260508095403 | 62 | 297 | 1.0 | 1.0 | 0.00 | 0.00 | 0.00 | 80 | 1014.2 |
| 20260508094900 | 62 | 264 | 1.0 | 1.0 | 0.00 | 0.00 | 0.00 | 81 | 1014.2 |
| 20260508094356 | 62 | 294 | 0.0 | 0.0 | 0.00 | 0.00 | 0.00 | 81 | 1014.3 |
| 20260508093853 | 62 | 315 | 0.0 | 0.0 | 0.00 | 0.00 | 0.00 | 82 | 1014.1 |
| 20260508093351 | 62 | 315 | 0.0 | 0.0 | 0.00 | 0.00 | 0.00 | 81 | 1014.4 |
| 20260508092848 | 63 | 315 | 0.0 | 0.0 | 0.00 | 0.00 | 0.00 | 81 | 1014.0 |
| 20260508092346 | 63 | 315 | 0.0 | 0.0 | 0.00 | 0.00 | 0.00 | 80 | 1014.1 |
| 20260508091844 | 63 | 254 | 1.0 | 1.0 | 0.00 | 0.00 | 0.00 | 80 | 1014.2 |
| 20260508091340 | 63 | 11 | 0.0 | 0.0 | 0.00 | 0.00 | 0.00 | 79 | 1014.0 |
| 20260508090838 | 63 | 282 | 0.0 | 1.0 | 0.00 | 0.00 | 0.00 | 79 | 1014.1 |
| 20260508090337 | 64 | 37 | 0.0 | 0.0 | 0.00 | 0.00 | 0.00 | 78 | 1014.1 |
| 20260508085832 | 64 | 24 | 0.0 | 1.0 | 0.00 | 0.00 | 0.00 | 78 | 1014.1 |
| 20260508085329 | 64 | 355 | 1.0 | 1.0 | 0.00 | 0.00 | 0.00 | 78 | 1014.3 |
| 20260508084825 | 65 | 294 | 0.0 | 0.0 | 0.00 | 0.00 | 0.00 | 77 | 1014.0 |
| 20260508084322 | 65 | 32 | 0.0 | 0.0 | 0.00 | 0.00 | 0.00 | 76 | 1014.2 |
| 20260508083820 | 65 | 269 | 2.0 | 2.0 | 0.00 | 0.00 | 0.00 | 75 | 1014.2 |
| 20260508083317 | 65 | 266 | 2.0 | 2.0 | 0.00 | 0.00 | 0.00 | 75 | 1014.4 |
| 20260508082817 | 65 | 280 | 2.0 | 2.0 | 0.00 | 0.00 | 0.00 | 76 | 1014.2 |
| 20260508082315 | 65 | 306 | 2.0 | 4.0 | 0.00 | 0.00 | 0.00 | 76 | 1014.4 |
| 20260508081812 | 65 | 276 | 1.0 | 1.0 | 0.00 | 0.00 | 0.00 | 76 | 1014.4 |
| 20260508081309 | 66 | 293 | 1.0 | 1.0 | 0.00 | 0.00 | 0.00 | 75 | 1014.2 |
| 20260508080806 | 66 | 260 | 3.0 | 4.0 | 0.00 | 0.00 | 0.00 | 74 | 1014.3 |
| 20260508080304 | 66 | 267 | 2.0 | 2.0 | 0.00 | 0.00 | 0.00 | 73 | 1014.4 |
| 20260508075800 | 66 | 255 | 3.0 | 4.0 | 0.00 | 0.00 | 0.00 | 73 | 1014.4 |
| 20260508075257 | 67 | 252 | 2.0 | 2.0 | 0.00 | 0.00 | 0.00 | 73 | 1014.2 |
| 20260508074755 | 67 | 274 | 1.0 | 1.0 | 0.00 | 0.00 | 0.00 | 73 | 1014.3 |
| 20260508074251 | 66 | 256 | 2.0 | 2.0 | 0.00 | 0.00 | 0.00 | 75 | 1014.3 |
| 20260508073749 | 67 | 279 | 1.0 | 1.0 | 0.00 | 0.00 | 0.00 | 75 | 1014.3 |
| 20260508073247 | 67 | 262 | 2.0 | 2.0 | 0.00 | 0.00 | 0.00 | 76 | 1014.3 |
| 20260508072742 | 67 | 269 | 1.0 | 1.0 | 0.00 | 0.00 | 0.00 | 76 | 1014.3 |
| 20260508072239 | 67 | 275 | 0.0 | 0.0 | 0.00 | 0.00 | 0.00 | 75 | 1014.2 |
| 20260508071737 | 66 | 337 | 0.0 | 0.0 | 0.00 | 0.00 | 0.00 | 76 | 1014.2 |
| 20260508071235 | 67 | 46 | 0.0 | 0.0 | 0.00 | 0.00 | 0.00 | 76 | 1014.2 |
| 20260508070732 | 67 | 348 | 0.0 | 0.0 | 0.00 | 0.00 | 0.00 | 75 | 1013.9 |
| 20260508070231 | 67 | 259 | 0.0 | 0.0 | 0.00 | 0.00 | 0.00 | 75 | 1014.2 |
| 20260508065727 | 67 | 32 | 0.0 | 0.0 | 0.00 | 0.00 | 0.00 | 76 | 1014.2 |
| 20260508065225 | 67 | 41 | 0.0 | 0.0 | 0.00 | 0.00 | 0.00 | 76 | 1014.3 |
| 20260508064723 | 67 | 41 | 0.0 | 0.0 | 0.00 | 0.00 | 0.00 | 76 | 1014.2 |
| 20260508064221 | 67 | 45 | 0.0 | 0.0 | 0.00 | 0.00 | 0.00 | 75 | 1014.1 |
| 20260508063718 | 68 | 45 | 0.0 | 0.0 | 0.00 | 0.00 | 0.00 | 75 | 1014.2 |
| 20260508063216 | 68 | 44 | 0.0 | 1.0 | 0.00 | 0.00 | 0.00 | 74 | 1014.1 |
| 20260508062713 | 68 | 53 | 0.0 | 0.0 | 0.00 | 0.00 | 0.00 | 74 | 1014.1 |
| 20260508062210 | 68 | 72 | 0.0 | 1.0 | 0.00 | 0.00 | 0.00 | 73 | 1014.0 |
| 20260508061707 | 68 | 61 | 0.0 | 1.0 | 0.00 | 0.00 | 0.00 | 73 | 1014.0 |
| 20260508061205 | 68 | 42 | 0.0 | 0.0 | 0.00 | 0.00 | 0.00 | 72 | 1013.8 |
| 20260508060702 | 69 | 39 | 0.0 | 0.0 | 0.00 | 0.00 | 0.00 | 72 | 1013.9 |
| 20260508060158 | 69 | 279 | 0.0 | 0.0 | 0.00 | 0.00 | 0.00 | 72 | 1014.0 |
| 20260508055654 | 69 | 250 | 2.0 | 2.0 | 0.00 | 0.00 | 0.00 | 71 | 1014.1 |
| 20260508055151 | 69 | 350 | 0.0 | 0.0 | 0.00 | 0.00 | 0.00 | 71 | 1014.0 |
| 20260508054647 | 69 | 346 | 0.0 | 0.0 | 0.00 | 0.00 | 0.00 | 71 | 1013.9 |
| 20260508054145 | 69 | 294 | 0.0 | 0.0 | 0.00 | 0.00 | 0.00 | 70 | 1014.0 |
| 20260508053642 | 70 | 317 | 0.0 | 0.0 | 0.00 | 0.00 | 0.00 | 70 | 1013.9 |
| 20260508053139 | 70 | 231 | 0.0 | 0.0 | 0.00 | 0.00 | 0.00 | 70 | 1014.0 |
| 20260508052637 | 70 | 231 | 1.0 | 1.0 | 0.00 | 0.00 | 0.00 | 70 | 1014.0 |
| 20260508052134 | 70 | 327 | 0.0 | 0.0 | 0.00 | 0.00 | 0.00 | 70 | 1013.9 |
| 20260508051629 | 70 | 329 | 0.0 | 1.0 | 0.00 | 0.00 | 0.00 | 69 | 1013.9 |
| 20260508051125 | 71 | 1 | 0.0 | 0.0 | 0.00 | 0.00 | 0.00 | 69 | 1013.9 |
| 20260508050621 | 71 | 40 | 0.0 | 0.0 | 0.00 | 0.00 | 0.00 | 68 | 1013.8 |
| 20260508050119 | 71 | 37 | 0.0 | 0.0 | 0.00 | 0.00 | 0.00 | 68 | 1014.1 |
| 20260508045615 | 71 | 351 | 0.0 | 1.0 | 0.00 | 0.00 | 0.00 | 68 | 1013.9 |
| 20260508045113 | 71 | 40 | 0.0 | 0.0 | 0.00 | 0.00 | 0.00 | 68 | 1014.1 |
| 20260508044610 | 71 | 19 | 0.0 | 0.0 | 0.00 | 0.00 | 0.00 | 68 | 1014.0 |
| 20260508044106 | 71 | 62 | 0.0 | 0.0 | 0.00 | 0.00 | 0.00 | 68 | 1014.1 |
| 20260508043603 | 71 | 62 | 0.0 | 0.0 | 0.00 | 0.00 | 0.00 | 67 | 1013.9 |
| 20260508043100 | 72 | 68 | 0.0 | 0.0 | 0.00 | 0.00 | 0.00 | 67 | 1013.9 |
| 20260508042557 | 72 | 22 | 0.0 | 0.0 | 0.00 | 0.00 | 0.00 | 66 | 1013.9 |
| 20260508042054 | 73 | 55 | 0.0 | 0.0 | 0.00 | 0.00 | 0.00 | 66 | 1013.8 |
| 20260508041550 | 73 | 105 | 1.0 | 1.0 | 0.00 | 0.00 | 0.00 | 66 | 1013.7 |
| 20260508041047 | 73 | 240 | 0.0 | 0.0 | 0.00 | 0.00 | 0.00 | 65 | 1013.6 |
| 20260508040544 | 74 | 241 | 1.0 | 1.0 | 0.00 | 0.00 | 0.00 | 64 | 1013.5 |
| 20260508040042 | 74 | 243 | 1.0 | 1.0 | 0.00 | 0.00 | 0.00 | 64 | 1013.4 |
| 20260508035538 | 74 | 247 | 1.0 | 1.0 | 0.00 | 0.00 | 0.00 | 63 | 1013.4 |
| 20260508035035 | 75 | 244 | 2.0 | 2.0 | 0.00 | 0.00 | 0.00 | 62 | 1013.4 |
| 20260508034532 | 75 | 237 | 1.0 | 2.0 | 0.00 | 0.00 | 0.00 | 62 | 1013.2 |
| 20260508034029 | 75 | 237 | 1.0 | 1.0 | 0.00 | 0.00 | 0.00 | 61 | 1013.3 |
| 20260508033527 | 75 | 257 | 1.0 | 1.0 | 0.00 | 0.00 | 0.00 | 61 | 1013.3 |
| 20260508033025 | 75 | 241 | 0.0 | 0.0 | 0.00 | 0.00 | 0.00 | 60 | 1013.3 |
| 20260508032521 | 76 | 240 | 2.0 | 2.0 | 0.00 | 0.00 | 0.00 | 59 | 1013.0 |
| 20260508032019 | 76 | 237 | 1.0 | 2.0 | 0.00 | 0.00 | 0.00 | 59 | 1013.1 |
| 20260508031516 | 77 | 252 | 0.0 | 1.0 | 0.00 | 0.00 | 0.00 | 58 | 1013.1 |
| 20260508031011 | 77 | 238 | 0.0 | 0.0 | 0.00 | 0.00 | 0.00 | 58 | 1012.9 |
| 20260508030509 | 77 | 269 | 0.0 | 0.0 | 0.00 | 0.00 | 0.00 | 57 | 1013.0 |
| 20260508030007 | 78 | 271 | 0.0 | 0.0 | 0.00 | 0.00 | 0.00 | 56 | 1012.7 |
| 20260508025502 | 78 | 273 | 0.0 | 0.0 | 0.00 | 0.00 | 0.00 | 56 | 1012.7 |
| 20260508024959 | 79 | 269 | 0.0 | 0.0 | 0.00 | 0.00 | 0.00 | 54 | 1012.8 |
| 20260508024455 | 80 | 264 | 1.0 | 1.0 | 0.00 | 0.00 | 0.00 | 53 | 1012.6 |
| 20260508023952 | 80 | 305 | 0.0 | 0.0 | 0.00 | 0.00 | 0.00 | 52 | 1012.6 |
| 20260508023449 | 81 | 244 | 1.0 | 2.0 | 0.00 | 0.00 | 0.00 | 51 | 1012.6 |
| 20260508022946 | 81 | 266 | 1.0 | 1.0 | 0.00 | 0.00 | 0.00 | 50 | 1012.5 |
| 20260508022442 | 82 | 269 | 1.0 | 1.0 | 0.00 | 0.00 | 0.00 | 49 | 1012.5 |
| 20260508021939 | 82 | 269 | 2.0 | 2.0 | 0.00 | 0.00 | 0.00 | 48 | 1012.4 |
| 20260508021435 | 83 | 309 | 3.0 | 4.0 | 0.00 | 0.00 | 0.00 | 47 | 1012.6 |
| 20260508020931 | 83 | 250 | 3.0 | 4.0 | 0.00 | 0.00 | 0.00 | 46 | 1012.6 |
| 20260508020429 | 84 | 284 | 5.0 | 7.0 | 0.00 | 0.00 | 0.00 | 46 | 1012.6 |
| 20260508015926 | 84 | 277 | 4.0 | 4.0 | 0.00 | 0.00 | 0.00 | 45 | 1012.6 |
| 20260508015424 | 84 | 252 | 6.0 | 7.0 | 0.00 | 0.00 | 0.00 | 44 | 1012.5 |
| 20260508014920 | 84 | 274 | 6.0 | 7.0 | 0.00 | 0.00 | 0.00 | 44 | 1012.5 |
| 20260508014417 | 84 | 264 | 2.0 | 2.0 | 0.00 | 0.00 | 0.00 | 44 | 1012.4 |
| 20260508013912 | 85 | 256 | 4.0 | 5.0 | 0.00 | 0.00 | 0.00 | 43 | 1012.4 |
| 20260508013408 | 85 | 262 | 1.0 | 2.0 | 0.00 | 0.00 | 0.00 | 44 | 1012.3 |
| 20260508012906 | 85 | 266 | 4.0 | 5.0 | 0.00 | 0.00 | 0.00 | 43 | 1012.4 |
| 20260508012403 | 85 | 263 | 1.0 | 2.0 | 0.00 | 0.00 | 0.00 | 42 | 1012.2 |
| 20260508011901 | 85 | 288 | 4.0 | 5.0 | 0.00 | 0.00 | 0.00 | 42 | 1012.3 |
| 20260508011359 | 86 | 261 | 5.0 | 6.0 | 0.00 | 0.00 | 0.00 | 41 | 1012.3 |
| 20260508010855 | 86 | 263 | 3.0 | 4.0 | 0.00 | 0.00 | 0.00 | 41 | 1012.4 |
| 20260508010353 | 86 | 266 | 3.0 | 5.0 | 0.00 | 0.00 | 0.00 | 41 | 1012.3 |
| 20260508005850 | 86 | 280 | 2.0 | 4.0 | 0.00 | 0.00 | 0.00 | 41 | 1012.6 |
| 20260508005346 | 86 | 262 | 3.0 | 5.0 | 0.00 | 0.00 | 0.00 | 40 | 1012.4 |
| 20260508004843 | 86 | 271 | 2.0 | 5.0 | 0.00 | 0.00 | 0.00 | 42 | 1012.6 |
| 20260508004339 | 87 | 238 | 2.0 | 4.0 | 0.00 | 0.00 | 0.00 | 41 | 1012.5 |
| 20260508003835 | 86 | 282 | 3.0 | 4.0 | 0.00 | 0.00 | 0.00 | 41 | 1012.4 |
| 20260508003333 | 86 | 249 | 5.0 | 6.0 | 0.00 | 0.00 | 0.00 | 40 | 1012.6 |
| 20260508002830 | 86 | 274 | 4.0 | 6.0 | 0.00 | 0.00 | 0.00 | 39 | 1012.6 |
| 20260508002326 | 86 | 247 | 4.0 | 6.0 | 0.00 | 0.00 | 0.00 | 40 | 1012.6 |
| 20260508001823 | 87 | 249 | 4.0 | 6.0 | 0.00 | 0.00 | 0.00 | 40 | 1012.9 |
| 20260508001319 | 86 | 304 | 3.0 | 4.0 | 0.00 | 0.00 | 0.00 | 41 | 1012.6 |
| 20260508000815 | 86 | 302 | 2.0 | 2.0 | 0.00 | 0.00 | 0.00 | 41 | 1012.8 |
| 20260508000312 | 86 | 264 | 4.0 | 5.0 | 0.00 | 0.00 | 0.00 | 41 | 1012.8 |
| 20260507235808 | 86 | 266 | 4.0 | 5.0 | 0.00 | 0.00 | 0.00 | 40 | 1012.7 |
| 20260507235307 | 86 | 263 | 4.0 | 5.0 | 0.00 | 0.00 | 0.00 | 41 | 1012.8 |
| 20260507234803 | 87 | 282 | 4.0 | 6.0 | 0.00 | 0.00 | 0.00 | 41 | 1012.8 |
| 20260507234259 | 87 | 260 | 2.0 | 4.0 | 0.00 | 0.00 | 0.00 | 40 | 1013.1 |
| 20260507233755 | 86 | 263 | 2.0 | 4.0 | 0.00 | 0.00 | 0.00 | 41 | 1013.0 |
| 20260507233253 | 86 | 250 | 5.0 | 6.0 | 0.00 | 0.00 | 0.00 | 40 | 1013.0 |
| 20260507232751 | 85 | 257 | 3.0 | 5.0 | 0.00 | 0.00 | 0.00 | 42 | 1013.1 |
| 20260507232247 | 86 | 248 | 6.0 | 7.0 | 0.00 | 0.00 | 0.00 | 40 | 1013.2 |
| 20260507231744 | 85 | 243 | 3.0 | 5.0 | 0.00 | 0.00 | 0.00 | 41 | 1013.2 |
| 20260507231241 | 86 | 251 | 3.0 | 4.0 | 0.00 | 0.00 | 0.00 | 41 | 1013.0 |
| 20260507230737 | 86 | 273 | 5.0 | 6.0 | 0.00 | 0.00 | 0.00 | 41 | 1013.1 |
| 20260507230235 | 86 | 247 | 3.0 | 4.0 | 0.00 | 0.00 | 0.00 | 39 | 1013.3 |
| 20260507225734 | 85 | 289 | 2.0 | 2.0 | 0.00 | 0.00 | 0.00 | 41 | 1013.4 |
| 20260507225231 | 85 | 254 | 4.0 | 5.0 | 0.00 | 0.00 | 0.00 | 40 | 1013.5 |
| 20260507224727 | 86 | 269 | 3.0 | 4.0 | 0.00 | 0.00 | 0.00 | 39 | 1013.5 |
| 20260507224224 | 85 | 348 | 2.0 | 2.0 | 0.00 | 0.00 | 0.00 | 39 | 1013.6 |
| 20260507223720 | 84 | 231 | 3.0 | 4.0 | 0.00 | 0.00 | 0.00 | 40 | 1013.6 |
| 20260507223217 | 84 | 253 | 1.0 | 2.0 | 0.00 | 0.00 | 0.00 | 40 | 1013.8 |
| 20260507222714 | 85 | 258 | 3.0 | 5.0 | 0.00 | 0.00 | 0.00 | 39 | 1014.0 |
| 20260507222210 | 84 | 277 | 3.0 | 4.0 | 0.00 | 0.00 | 0.00 | 39 | 1013.8 |
| 20260507221707 | 85 | 247 | 3.0 | 5.0 | 0.00 | 0.00 | 0.00 | 40 | 1013.9 |
| 20260507221203 | 85 | 287 | 1.0 | 1.0 | 0.00 | 0.00 | 0.00 | 40 | 1014.0 |
| 20260507220700 | 85 | 286 | 2.0 | 2.0 | 0.00 | 0.00 | 0.00 | 40 | 1014.3 |
| 20260507220158 | 85 | 254 | 2.0 | 2.0 | 0.00 | 0.00 | 0.00 | 39 | 1014.3 |
| 20260507215654 | 84 | 233 | 1.0 | 1.0 | 0.00 | 0.00 | 0.00 | 40 | 1014.4 |
| 20260507215152 | 84 | 39 | 1.0 | 1.0 | 0.00 | 0.00 | 0.00 | 40 | 1014.4 |
| 20260507214649 | 85 | 75 | 1.0 | 2.0 | 0.00 | 0.00 | 0.00 | 38 | 1014.3 |
| 20260507214145 | 84 | 264 | 3.0 | 4.0 | 0.00 | 0.00 | 0.00 | 39 | 1014.5 |
| 20260507213641 | 84 | 260 | 3.0 | 5.0 | 0.00 | 0.00 | 0.00 | 40 | 1014.6 |
| 20260507213138 | 83 | 44 | 1.0 | 2.0 | 0.00 | 0.00 | 0.00 | 39 | 1014.7 |
| 20260507212634 | 83 | 267 | 1.0 | 1.0 | 0.00 | 0.00 | 0.00 | 39 | 1014.6 |
| 20260507212131 | 83 | 249 | 3.0 | 4.0 | 0.00 | 0.00 | 0.00 | 41 | 1015.0 |
| 20260507211628 | 84 | 42 | 1.0 | 1.0 | 0.00 | 0.00 | 0.00 | 41 | 1014.7 |
| 20260507211124 | 84 | 298 | 0.0 | 0.0 | 0.00 | 0.00 | 0.00 | 41 | 1014.9 |
| 20260507210622 | 84 | 178 | 3.0 | 4.0 | 0.00 | 0.00 | 0.00 | 39 | 1015.0 |
| 20260507210118 | 83 | 253 | 4.0 | 5.0 | 0.00 | 0.00 | 0.00 | 38 | 1015.0 |
| 20260507205615 | 83 | 107 | 1.0 | 1.0 | 0.00 | 0.00 | 0.00 | 39 | 1015.1 |
| 20260507205111 | 82 | 242 | 0.0 | 0.0 | 0.00 | 0.00 | 0.00 | 41 | 1015.3 |
| 20260507204607 | 82 | 250 | 2.0 | 2.0 | 0.00 | 0.00 | 0.00 | 41 | 1015.1 |
| 20260507204105 | 82 | 20 | 1.0 | 1.0 | 0.00 | 0.00 | 0.00 | 40 | 1015.1 |
| 20260507203603 | 83 | 240 | 2.0 | 2.0 | 0.00 | 0.00 | 0.00 | 42 | 1015.4 |
| 20260507203100 | 83 | 45 | 2.0 | 2.0 | 0.00 | 0.00 | 0.00 | 40 | 1015.4 |
| 20260507202555 | 82 | 341 | 0.0 | 1.0 | 0.00 | 0.00 | 0.00 | 41 | 1015.6 |
| 20260507202052 | 82 | 234 | 2.0 | 2.0 | 0.00 | 0.00 | 0.00 | 43 | 1015.4 |
| 20260507201547 | 81 | 255 | 4.0 | 6.0 | 0.00 | 0.00 | 0.00 | 46 | 1015.5 |
| 20260507201044 | 81 | 236 | 1.0 | 1.0 | 0.00 | 0.00 | 0.00 | 44 | 1015.7 |
| 20260507200540 | 82 | 37 | 2.0 | 2.0 | 0.00 | 0.00 | 0.00 | 41 | 1015.6 |
| 20260507200036 | 81 | 341 | 2.0 | 4.0 | 0.00 | 0.00 | 0.00 | 42 | 1015.6 |
| 20260507195533 | 81 | 12 | 4.0 | 5.0 | 0.00 | 0.00 | 0.00 | 43 | 1015.8 |
| 20260507195031 | 80 | 241 | 3.0 | 4.0 | 0.00 | 0.00 | 0.00 | 43 | 1015.7 |
| 20260507194527 | 80 | 247 | 3.0 | 4.0 | 0.00 | 0.00 | 0.00 | 46 | 1015.9 |
| 20260507194023 | 80 | 5 | 1.0 | 2.0 | 0.00 | 0.00 | 0.00 | 45 | 1016.1 |
| 20260507193520 | 81 | 273 | 2.0 | 2.0 | 0.00 | 0.00 | 0.00 | 44 | 1015.7 |
| 20260507193017 | 80 | 256 | 4.0 | 5.0 | 0.00 | 0.00 | 0.00 | 43 | 1016.0 |
| 20260507192513 | 79 | 66 | 0.0 | 1.0 | 0.00 | 0.00 | 0.00 | 44 | 1016.0 |
| 20260507192010 | 80 | 262 | 5.0 | 6.0 | 0.00 | 0.00 | 0.00 | 44 | 1016.1 |
| 20260507191506 | 79 | 312 | 1.0 | 1.0 | 0.00 | 0.00 | 0.00 | 45 | 1016.1 |
| 20260507191003 | 78 | 275 | 3.0 | 4.0 | 0.00 | 0.00 | 0.00 | 46 | 1016.4 |
| 20260507190500 | 79 | 337 | 1.0 | 1.0 | 0.00 | 0.00 | 0.00 | 46 | 1016.2 |
| 20260507185959 | 79 | 262 | 3.0 | 4.0 | 0.00 | 0.00 | 0.00 | 45 | 1016.3 |
| 20260507185456 | 79 | 31 | 0.0 | 1.0 | 0.00 | 0.00 | 0.00 | 46 | 1016.2 |
| 20260507184953 | 77 | 241 | 3.0 | 4.0 | 0.00 | 0.00 | 0.00 | 50 | 1016.4 |
| 20260507184451 | 78 | 226 | 2.0 | 2.0 | 0.00 | 0.00 | 0.00 | 49 | 1016.6 |
| 20260507183949 | 78 | 48 | 0.0 | 1.0 | 0.00 | 0.00 | 0.00 | 49 | 1016.9 |
| 20260507183445 | 77 | 336 | 0.0 | 1.0 | 0.00 | 0.00 | 0.00 | 51 | 1016.6 |
| 20260507182942 | 76 | 267 | 1.0 | 2.0 | 0.00 | 0.00 | 0.00 | 52 | 1016.8 |
| 20260507182438 | 77 | 297 | 1.0 | 1.0 | 0.00 | 0.00 | 0.00 | 52 | 1016.8 |
| 20260507181934 | 76 | 247 | 2.0 | 2.0 | 0.00 | 0.00 | 0.00 | 53 | 1016.6 |
| 20260507181430 | 75 | 29 | 1.0 | 1.0 | 0.00 | 0.00 | 0.00 | 51 | 1016.8 |
| 20260507180927 | 76 | 326 | 0.0 | 0.0 | 0.00 | 0.00 | 0.00 | 53 | 1016.9 |
| 20260507180424 | 76 | 238 | 1.0 | 1.0 | 0.00 | 0.00 | 0.00 | 53 | 1016.9 |
| 20260507175920 | 75 | 255 | 2.0 | 2.0 | 0.00 | 0.00 | 0.00 | 53 | 1016.9 |
| 20260507175417 | 74 | 269 | 1.0 | 1.0 | 0.00 | 0.00 | 0.00 | 55 | 1016.8 |
| 20260507174915 | 74 | 248 | 2.0 | 2.0 | 0.00 | 0.00 | 0.00 | 56 | 1017.0 |
| 20260507174412 | 74 | 244 | 2.0 | 2.0 | 0.00 | 0.00 | 0.00 | 56 | 1017.1 |
| 20260507173909 | 74 | 271 | 0.0 | 1.0 | 0.00 | 0.00 | 0.00 | 56 | 1016.9 |
| 20260507173406 | 73 | 254 | 1.0 | 1.0 | 0.00 | 0.00 | 0.00 | 57 | 1017.0 |
| 20260507172902 | 73 | 246 | 0.0 | 1.0 | 0.00 | 0.00 | 0.00 | 56 | 1017.0 |
| 20260507172359 | 73 | 285 | 3.0 | 4.0 | 0.00 | 0.00 | 0.00 | 57 | 1017.2 |
| 20260507171855 | 73 | 234 | 1.0 | 1.0 | 0.00 | 0.00 | 0.00 | 58 | 1017.2 |
| 20260507171352 | 72 | 288 | 3.0 | 4.0 | 0.00 | 0.00 | 0.00 | 58 | 1017.5 |
| 20260507170849 | 73 | 311 | 0.0 | 1.0 | 0.00 | 0.00 | 0.00 | 58 | 1017.2 |
| 20260507170345 | 73 | 327 | 2.0 | 2.0 | 0.00 | 0.00 | 0.00 | 58 | 1017.4 |
| 20260507165842 | 73 | 237 | 2.0 | 2.0 | 0.00 | 0.00 | 0.00 | 57 | 1017.3 |
| 20260507165337 | 72 | 286 | 0.0 | 1.0 | 0.00 | 0.00 | 0.00 | 58 | 1017.4 |
| 20260507164834 | 71 | 327 | 0.0 | 0.0 | 0.00 | 0.00 | 0.00 | 59 | 1017.3 |
| 20260507164331 | 71 | 265 | 1.0 | 2.0 | 0.00 | 0.00 | 0.00 | 58 | 1017.2 |
| 20260507163828 | 70 | 258 | 0.0 | 1.0 | 0.00 | 0.00 | 0.00 | 62 | 1017.3 |
| 20260507163325 | 70 | 280 | 1.0 | 2.0 | 0.00 | 0.00 | 0.00 | 62 | 1017.3 |
| 20260507162821 | 70 | 305 | 1.0 | 2.0 | 0.00 | 0.00 | 0.00 | 62 | 1017.2 |
| 20260507162317 | 69 | 308 | 1.0 | 1.0 | 0.00 | 0.00 | 0.00 | 63 | 1017.3 |
| 20260507161815 | 69 | 320 | 0.0 | 0.0 | 0.00 | 0.00 | 0.00 | 65 | 1017.3 |
| 20260507161311 | 68 | 271 | 3.0 | 4.0 | 0.00 | 0.00 | 0.00 | 65 | 1017.6 |
| 20260507160808 | 68 | 269 | 1.0 | 2.0 | 0.00 | 0.00 | 0.00 | 65 | 1017.4 |
| 20260507160304 | 68 | 285 | 2.0 | 2.0 | 0.00 | 0.00 | 0.00 | 65 | 1017.4 |
| 20260507155759 | 69 | 249 | 3.0 | 4.0 | 0.00 | 0.00 | 0.00 | 65 | 1017.4 |
| 20260507155256 | 67 | 280 | 0.0 | 1.0 | 0.00 | 0.00 | 0.00 | 67 | 1017.3 |
| 20260507154752 | 66 | 306 | 0.0 | 1.0 | 0.00 | 0.00 | 0.00 | 68 | 1017.4 |
| 20260507154250 | 66 | 6 | 0.0 | 0.0 | 0.00 | 0.00 | 0.00 | 67 | 1017.3 |
| 20260507153746 | 65 | 290 | 1.0 | 1.0 | 0.00 | 0.00 | 0.00 | 68 | 1017.5 |
| 20260507153243 | 65 | 308 | 1.0 | 1.0 | 0.00 | 0.00 | 0.00 | 69 | 1017.3 |
| 20260507152740 | 65 | 312 | 1.0 | 1.0 | 0.00 | 0.00 | 0.00 | 71 | 1017.3 |
| 20260507152236 | 64 | 280 | 1.0 | 1.0 | 0.00 | 0.00 | 0.00 | 72 | 1017.4 |
| 20260507151732 | 63 | 271 | 1.0 | 1.0 | 0.00 | 0.00 | 0.00 | 72 | 1017.5 |
| 20260507151228 | 64 | 339 | 1.0 | 1.0 | 0.00 | 0.00 | 0.00 | 71 | 1017.6 |
| 20260507150726 | 64 | 25 | 0.0 | 0.0 | 0.00 | 0.00 | 0.00 | 73 | 1017.4 |
| 20260507150222 | 64 | 25 | 0.0 | 0.0 | 0.00 | 0.00 | 0.00 | 74 | 1017.6 |
| 20260507145718 | 63 | 25 | 0.0 | 0.0 | 0.00 | 0.00 | 0.00 | 75 | 1017.3 |
| 20260507145215 | 62 | 27 | 0.0 | 0.0 | 0.00 | 0.00 | 0.00 | 75 | 1017.4 |
| 20260507144712 | 61 | 12 | 0.0 | 0.0 | 0.00 | 0.00 | 0.00 | 77 | 1017.4 |
| 20260507144210 | 61 | 12 | 0.0 | 0.0 | 0.00 | 0.00 | 0.00 | 79 | 1017.4 |
| 20260507143706 | 60 | 275 | 0.0 | 0.0 | 0.00 | 0.00 | 0.00 | 80 | 1017.4 |
| 20260507143203 | 60 | 283 | 1.0 | 1.0 | 0.00 | 0.00 | 0.00 | 80 | 1017.5 |
| 20260507142659 | 59 | 280 | 1.0 | 1.0 | 0.00 | 0.00 | 0.00 | 81 | 1017.7 |
| 20260507142155 | 59 | 279 | 0.0 | 0.0 | 0.00 | 0.00 | 0.00 | 82 | 1017.4 |
| 20260507141652 | 58 | 280 | 0.0 | 0.0 | 0.00 | 0.00 | 0.00 | 83 | 1017.3 |
| 20260507141149 | 58 | 281 | 1.0 | 1.0 | 0.00 | 0.00 | 0.00 | 83 | 1017.3 |
| 20260507140645 | 58 | 281 | 0.0 | 0.0 | 0.00 | 0.00 | 0.00 | 84 | 1017.3 |
| 20260507140143 | 58 | 283 | 0.0 | 1.0 | 0.00 | 0.00 | 0.00 | 84 | 1017.0 |